Regional Weather Roundup
Issued by NWS

Home | Current Version | Previous Version | Graphics & Text | Print | Product List | Glossary On
Versions: 1 2 3 4 5 6 7 8 9 10 11 12 13 14 15 16 17 18 19 20 21 22 23 24 25 26 27 28 29 30 31 32 33 34 35 36 37 38 39 40 41 42 43 44 45 46 47 48 49 50
000
ASUS45 KABQ 291801
RWRNM
NEW MEXICO REGIONAL WEATHER ROUNDUP
NATIONAL WEATHER SERVICE ALBUQUERQUE NM
1200 PM MDT WED JUL 29 2015

NOTE: "FAIR" MEANS FEW OR NO CLOUDS BELOW 12,000 FEET AGL WITH NO
       SIGNIFICANT WEATHER OR OBSTRUCTIONS TO VISION.

      THIS PRODUCT IS RELEASED AS TWO VERSIONS.  ONE VERSION NEAR
      THE TOP OF THE HOUR CONTAINING PRELIMINARY DATA FROM ALBUQUERQUE
      AND OTHER STATIONS.  A FINAL VERSION WITH ADDITIONAL DATA IS
      ISSUED ABOUT 10 MINUTES AFTER THE HOUR.

NMZ501-503-504-510>518-291900-
NORTHWEST PLATEAU/NORTHCENTRAL MOUNTAINS

CITY           SKY/WX    TMP DP  RH WIND       PRES   REMARKS
FARMINGTON     CLOUDY    81  48  31 SE7       30.27S
6HR MIN TEMP:  58; 6HR MAX TEMP:  81;

SANTA FE       CLOUDY    74  52  46 VRB5      30.38R
6HR MIN TEMP:  64; 6HR MAX TEMP:  74;

TAOS           PTSUNNY   73  46  38 S8        30.43S
ANGEL FIRE     FAIR      65  53  64 S13       30.52F

$$
NMZ402-403-502-505>509-291900-
WESTCENTRAL MOUNTAINS/SOUTHWEST MOUNTAINS

CITY           SKY/WX    TMP DP  RH WIND       PRES   REMARKS
GALLUP         CLOUDY    70  52  52 VRB3      30.36R
6HR MIN TEMP:  65; 6HR MAX TEMP:  76; 6HR PCP: TRACE;

SILVER CITY      N/A     77  55  47 SE10      30.30S

$$
NMZ407-409-411-412-291900-
SOUTHERN DESERTS

CITY           SKY/WX    TMP DP  RH WIND       PRES   REMARKS
DEMING         PTSUNNY   80  59  48 E7        30.22S
6HR MIN TEMP:  71; 6HR MAX TEMP:  80;

ALAMOGORDO     SUNNY     82  57  42 N5        30.21S
T OR C         CLOUDY    76  60  57 VRB3      30.25R
6HR MIN TEMP:  69; 6HR MAX TEMP:  77;


$$
NMZ519>523-291900-
CENTRAL VALLEYS/CENTRAL HIGHLANDS

CITY           SKY/WX    TMP DP  RH WIND       PRES   REMARKS
ALBUQUERQUE    PTSUNNY   78  55  44 N9        30.32R
6HR MIN TEMP:  71; 6HR MAX TEMP:  79; 6HR PCP: TRACE;

DOUBLE EAGLE   PTSUNNY   75  57  53 CALM      30.35S
MORIARTY ARPT    N/A     74  51  44 CALM      30.38S
6HR MIN TEMP:  60; 6HR MAX TEMP:  74;

CLINES CORNERS CLOUDY    68  54  60 SE14      30.43R
6HR MIN TEMP:  59; 6HR MAX TEMP:  71;

BELEN          MOCLDY    80  55  42 E6        30.29S
6HR MIN TEMP:  69; 6HR MAX TEMP:  82;

SOCORRO        NOT AVBL

$$
NMZ524>526-539-540-291900-
SOUTHCENTRAL MOUNTAINS

CITY           SKY/WX    TMP DP  RH WIND       PRES   REMARKS
RUIDOSO          N/A    N/A N/A N/A MISG        N/A

$$
NMZ527>531-291900-
NORTHEAST HIGHLANDS/NORTHEAST PLAINS

CITY           SKY/WX    TMP DP  RH WIND       PRES   REMARKS
LAS VEGAS      LGT RAIN  70  56  61 SE10      30.44R
6HR MIN TEMP:  57; 6HR MAX TEMP:  72; 6HR PCP: TRACE;

RATON          CLOUDY    75  51  43 SE12      30.38S
6HR MIN TEMP:  55; 6HR MAX TEMP:  78;

CLAYTON        SUNNY     75  54  47 NE13      30.35F
6HR MIN TEMP:  60; 6HR MAX TEMP:  75;


$$
NMZ532>537-291900-
EASTCENTRAL PLAINS

CITY           SKY/WX    TMP DP  RH WIND       PRES   REMARKS
TUCUMCARI      PTSUNNY   79  65  62 NE13      30.26F
6HR MIN TEMP:  66; 6HR MAX TEMP:  79;

CANNON AFB     SUNNY     80  64  57 SE10      30.27S
6HR MIN TEMP:  65; 6HR MAX TEMP:  80;

CLOVIS AIRPORT SUNNY     82  64  54 E10       30.28S

$$
NMZ028-029-538-291900-
SOUTHEAST PLAINS

CITY           SKY/WX    TMP DP  RH WIND       PRES   REMARKS
ROSWELL        SUNNY     87  58  37 CALM      30.21S
6HR MIN TEMP:  69; 6HR MAX TEMP:  88;

ARTESIA        SUNNY     86  63  45 N10       30.21S
CARLSBAD       SUNNY     90  61  37 N12G20    30.16F
6HR MIN TEMP:  71; 6HR MAX TEMP:  91;

HOBBS          SUNNY     88  61  40 NE9       30.20S


$$



USA.gov is the U.S. government's official web portal to all federal, state and local government web resources and services.